FJI1743 NZAA-NFFN

Flight info

Callsign FJI1743
Flight time 2h 29m
Altitude 40000
Route KALAG A578 AGTOS A577 MI
Aircraft A359/H-SDE2E3GHIJ3J4J5LM1ORWXY/LB1D1

Departure

Time 2026-05-06 06:39
Airport Auckland International Airport (NZAA)

Arrival

Time 2026-05-06 09:09
Airport Nadi International Airport (NFFN)
Time Latitude Longitude Altitude Speed Heading
2026-05-06 06:00 -37.00717 174.78305 32 ft 0 kts 303°
2026-05-06 06:26 -37.00723 174.78316 32 ft 3 kts 303°
2026-05-06 06:27 -37.00734 174.78336 32 ft 3 kts 298°
2026-05-06 06:27 -37.00740 174.78360 31 ft 3 kts 257°
2026-05-06 06:27 -37.00732 174.78382 32 ft 3 kts 232°
2026-05-06 06:27 -37.00718 174.78398 32 ft 0 kts 196°
2026-05-06 06:32 -37.00730 174.78394 30 ft 5 kts 195°
2026-05-06 06:32 -37.00782 174.78379 33 ft 9 kts 190°
2026-05-06 06:32 -37.00858 174.78370 33 ft 12 kts 185°
2026-05-06 06:33 -37.00919 174.78364 32 ft 9 kts 184°
2026-05-06 06:33 -37.00973 174.78369 32 ft 9 kts 168°
2026-05-06 06:33 -37.01026 174.78376 32 ft 8 kts 185°
2026-05-06 06:33 -37.01079 174.78337 32 ft 10 kts 230°
2026-05-06 06:34 -37.01115 174.78246 30 ft 8 kts 248°
2026-05-06 06:34 -37.01139 174.78165 29 ft 12 kts 250°
2026-05-06 06:34 -37.01171 174.78057 30 ft 14 kts 250°
2026-05-06 06:34 -37.01204 174.77938 29 ft 14 kts 252°
2026-05-06 06:35 -37.01233 174.77825 28 ft 15 kts 251°
2026-05-06 06:35 -37.01268 174.77701 29 ft 14 kts 251°
2026-05-06 06:35 -37.01303 174.77575 29 ft 17 kts 251°
2026-05-06 06:35 -37.01339 174.77442 28 ft 17 kts 251°
2026-05-06 06:36 -37.01378 174.77301 29 ft 14 kts 251°
2026-05-06 06:36 -37.01405 174.77205 29 ft 12 kts 250°
2026-05-06 06:36 -37.01415 174.77173 29 ft 2 kts 249°
2026-05-06 06:36 -37.01430 174.77138 28 ft 7 kts 233°
2026-05-06 06:37 -37.01481 174.77104 28 ft 10 kts 195°
2026-05-06 06:37 -37.01529 174.77091 28 ft 0 kts 192°
2026-05-06 06:37 -37.01546 174.77086 28 ft 4 kts 192°
2026-05-06 06:37 -37.01581 174.77085 28 ft 6 kts 169°
2026-05-06 06:38 -37.01613 174.77126 28 ft 7 kts 111°
2026-05-06 06:38 -37.01603 174.77189 28 ft 8 kts 69°
2026-05-06 06:38 -37.01567 174.77312 30 ft 38 kts 70°
2026-05-06 06:38 -37.01398 174.77922 27 ft 109 kts 71°
2026-05-06 06:39 -37.01081 174.79060 49 ft 165 kts 70°
2026-05-06 06:39 -37.00697 174.80369 832 ft 157 kts 68°
2026-05-06 06:39 -37.00320 174.81626 1695 ft 153 kts 66°
2026-05-06 06:39 -36.99926 174.82939 2195 ft 170 kts 67°
2026-05-06 06:40 -36.99515 174.84458 2482 ft 199 kts 69°
2026-05-06 06:40 -36.99055 174.86212 2852 ft 225 kts 69°
2026-05-06 06:40 -36.98538 174.88144 3409 ft 241 kts 69°
2026-05-06 06:40 -36.97987 174.90171 4141 ft 249 kts 69°
2026-05-06 06:41 -36.97416 174.92250 4873 ft 257 kts 69°
2026-05-06 06:41 -36.96827 174.94388 5658 ft 262 kts 69°
2026-05-06 06:41 -36.96232 174.96536 6474 ft 267 kts 69°
2026-05-06 06:41 -36.95614 174.98756 7314 ft 272 kts 68°
2026-05-06 06:42 -36.94795 175.00898 8152 ft 274 kts 53°
2026-05-06 06:42 -36.93464 175.02587 9049 ft 274 kts 32°
2026-05-06 06:42 -36.91723 175.03533 9938 ft 274 kts 11°
2026-05-06 06:42 -36.89789 175.03718 10583 ft 287 kts 358°
2026-05-06 06:43 -36.87716 175.03607 10944 ft 309 kts 356°
2026-05-06 06:43 -36.85506 175.03453 11375 ft 326 kts 356°
2026-05-06 06:43 -36.83205 175.03308 12044 ft 334 kts 357°
2026-05-06 06:43 -36.80861 175.03173 12810 ft 340 kts 357°
2026-05-06 06:44 -36.78508 175.03044 13595 ft 345 kts 357°
2026-05-06 06:44 -36.76089 175.02915 14339 ft 350 kts 357°
2026-05-06 06:44 -36.73636 175.02787 15029 ft 356 kts 356°
2026-05-06 06:44 -36.71145 175.02657 15711 ft 361 kts 356°
2026-05-06 06:45 -36.68612 175.02525 16390 ft 366 kts 356°
2026-05-06 06:45 -36.66054 175.02394 17075 ft 370 kts 356°
2026-05-06 06:45 -36.63463 175.02262 17757 ft 375 kts 356°
2026-05-06 06:45 -36.60837 175.02127 18417 ft 380 kts 356°
2026-05-06 06:46 -36.58212 175.01993 19021 ft 385 kts 356°
2026-05-06 06:46 -36.55517 175.01855 19596 ft 390 kts 356°
2026-05-06 06:46 -36.52780 175.01716 20191 ft 395 kts 356°
2026-05-06 06:46 -36.50016 175.01575 20780 ft 400 kts 356°
2026-05-06 06:47 -36.47217 175.01444 21381 ft 405 kts 357°
2026-05-06 06:47 -36.44382 175.01562 21978 ft 410 kts
2026-05-06 06:47 -36.41518 175.01872 22584 ft 415 kts
2026-05-06 06:47 -36.38618 175.02216 23154 ft 420 kts
2026-05-06 06:48 -36.35692 175.02563 23755 ft 425 kts
2026-05-06 06:48 -36.32726 175.02910 24269 ft 430 kts
2026-05-06 06:48 -36.29770 175.03255 24761 ft 434 kts
2026-05-06 06:48 -36.26743 175.03606 25265 ft 438 kts
2026-05-06 06:49 -36.23697 175.03958 25760 ft 442 kts
2026-05-06 06:49 -36.20620 175.04313 26260 ft 445 kts
2026-05-06 06:49 -36.17515 175.04671 26753 ft 449 kts
2026-05-06 06:49 -36.14379 175.05026 27213 ft 454 kts
2026-05-06 06:50 -36.11214 175.05391 27690 ft 458 kts
2026-05-06 06:50 -36.08027 175.05759 28160 ft 462 kts
2026-05-06 06:50 -36.04809 175.06131 28629 ft 465 kts
2026-05-06 06:50 -36.01617 175.06498 29087 ft 469 kts
2026-05-06 06:51 -35.98349 175.06873 29538 ft 473 kts
2026-05-06 06:51 -35.95062 175.07250 29978 ft 477 kts
2026-05-06 06:51 -35.91742 175.07630 30408 ft 480 kts
2026-05-06 06:51 -35.88397 175.08013 30769 ft 484 kts
2026-05-06 06:52 -35.85036 175.08397 31125 ft 487 kts
2026-05-06 06:52 -35.81652 175.08783 31486 ft 490 kts
2026-05-06 06:52 -35.79391 175.09041 31715 ft 492 kts
2026-05-06 06:52 -35.75968 175.09431 32059 ft 495 kts
2026-05-06 06:53 -35.71390 175.09952 32502 ft 499 kts
2026-05-06 06:53 -35.67926 175.10346 32830 ft 502 kts
2026-05-06 06:53 -35.65573 175.10614 33044 ft 504 kts
2026-05-06 06:53 -35.62065 175.11012 33317 ft 507 kts
2026-05-06 06:54 -35.58544 175.11412 33606 ft 510 kts
2026-05-06 06:54 -35.54993 175.11815 33917 ft 513 kts
2026-05-06 06:54 -35.51422 175.12219 34194 ft 516 kts
2026-05-06 06:54 -35.47887 175.12620 34444 ft 518 kts
2026-05-06 06:55 -35.44291 175.13027 34721 ft 519 kts
2026-05-06 06:55 -35.40688 175.13434 35015 ft 520 kts
2026-05-06 06:55 -35.37088 175.13841 35335 ft 519 kts
2026-05-06 06:55 -35.33488 175.14248 35724 ft 517 kts
2026-05-06 06:56 -35.29909 175.14652 36150 ft 514 kts
2026-05-06 06:56 -35.26357 175.15052 36551 ft 511 kts
2026-05-06 06:56 -35.22815 175.15451 36915 ft 509 kts
2026-05-06 06:56 -35.19292 175.15847 37265 ft 508 kts
2026-05-06 06:57 -35.15773 175.16242 37617 ft 506 kts
2026-05-06 06:57 -35.12270 175.16635 37945 ft 504 kts
2026-05-06 06:57 -35.08819 175.17022 38269 ft 503 kts
2026-05-06 06:57 -35.05336 175.17412 38602 ft 501 kts
2026-05-06 06:58 -35.01863 175.17801 38922 ft 499 kts
2026-05-06 06:58 -34.98415 175.18187 39178 ft 498 kts
2026-05-06 06:58 -34.94958 175.18573 39358 ft 498 kts
2026-05-06 06:58 -34.91508 175.18958 39516 ft 498 kts
2026-05-06 06:59 -34.88058 175.19342 39659 ft 498 kts
2026-05-06 06:59 -34.84605 175.19727 39818 ft 499 kts
2026-05-06 06:59 -34.81151 175.20112 39963 ft 499 kts
2026-05-06 06:59 -34.77695 175.20496 40124 ft 499 kts
2026-05-06 07:00 -34.74232 175.20881 40277 ft 499 kts
2026-05-06 07:00 -34.67348 175.21645 40352 ft 500 kts
2026-05-06 07:01 -34.60417 175.22414 40347 ft 500 kts
2026-05-06 07:01 -34.53483 175.23181 40347 ft 500 kts
2026-05-06 07:02 -34.46554 175.23947 40346 ft 500 kts
2026-05-06 07:02 -34.39654 175.24708 40346 ft 500 kts
2026-05-06 07:03 -34.32712 175.25472 40347 ft 501 kts
2026-05-06 07:03 -34.25762 175.26236 40348 ft 501 kts
2026-05-06 07:04 -34.18811 175.26999 40348 ft 501 kts
2026-05-06 07:04 -34.11895 175.27757 40340 ft 501 kts
2026-05-06 07:05 -34.04947 175.28517 40347 ft 502 kts
2026-05-06 07:05 -33.97986 175.29277 40344 ft 502 kts
2026-05-06 07:06 -33.91018 175.30037 40341 ft 502 kts
2026-05-06 07:06 -33.84057 175.30795 40335 ft 502 kts
2026-05-06 07:07 -33.77124 175.31548 40337 ft 503 kts
2026-05-06 07:07 -33.70151 175.32306 40330 ft 504 kts
2026-05-06 07:08 -33.63159 175.33213 40330 ft 504 kts
2026-05-06 07:08 -33.56196 175.34313 40328 ft 505 kts
2026-05-06 07:09 -33.49210 175.35410 40330 ft 506 kts
2026-05-06 07:09 -33.42227 175.36472 40331 ft 506 kts
2026-05-06 07:10 -33.35233 175.37518 40331 ft 506 kts
2026-05-06 07:10 -33.28288 175.38554 40324 ft 506 kts
2026-05-06 07:11 -33.21298 175.39595 40326 ft 506 kts
2026-05-06 07:11 -33.14295 175.40637 40322 ft 506 kts
2026-05-06 07:12 -33.07333 175.41672 40311 ft 506 kts
2026-05-06 07:12 -33.00327 175.42712 40331 ft 507 kts
2026-05-06 07:13 -32.93315 175.43758 40319 ft 506 kts
2026-05-06 07:13 -32.86330 175.44788 40319 ft 506 kts
2026-05-06 07:14 -32.79384 175.45811 40310 ft 506 kts
2026-05-06 07:14 -32.72374 175.46843 40320 ft 508 kts
2026-05-06 07:15 -32.65363 175.47876 40319 ft 508 kts
2026-05-06 07:15 -32.58333 175.48909 40314 ft 508 kts
2026-05-06 07:16 -32.51315 175.49940 40307 ft 508 kts
2026-05-06 07:16 -32.44321 175.50964 40305 ft 510 kts
2026-05-06 07:17 -32.37264 175.51997 40307 ft 510 kts
2026-05-06 07:17 -32.30207 175.53028 40307 ft 510 kts
2026-05-06 07:18 -32.23164 175.54055 40310 ft 511 kts
2026-05-06 07:18 -32.16135 175.55078 40304 ft 513 kts
2026-05-06 07:19 -32.09045 175.56109 40301 ft 513 kts
2026-05-06 07:19 -32.01952 175.57139 40305 ft 513 kts
2026-05-06 07:20 -31.94862 175.58167 40298 ft 514 kts
2026-05-06 07:20 -31.87755 175.59195 40294 ft 515 kts
2026-05-06 07:21 -31.80638 175.60224 40293 ft 515 kts
2026-05-06 07:21 -31.73567 175.61244 40293 ft 515 kts
2026-05-06 07:22 -31.66436 175.62271 40289 ft 517 kts
2026-05-06 07:22 -31.59290 175.63298 40290 ft 517 kts
2026-05-06 07:23 -31.52140 175.64325 40286 ft 517 kts
2026-05-06 07:23 -31.44996 175.65350 40289 ft 517 kts
2026-05-06 07:24 -31.37869 175.66370 40287 ft 520 kts
2026-05-06 07:24 -31.30682 175.67397 40278 ft 520 kts
2026-05-06 07:25 -31.23498 175.68423 40281 ft 520 kts
2026-05-06 07:25 -31.16303 175.69448 40271 ft 520 kts
2026-05-06 07:26 -31.09104 175.70472 40281 ft 522 kts
2026-05-06 07:26 -31.01882 175.71499 40279 ft 522 kts
2026-05-06 07:27 -30.94661 175.72523 40276 ft 522 kts
2026-05-06 07:27 -30.87499 175.73543 40262 ft 522 kts
2026-05-06 07:28 -30.80271 175.74563 40275 ft 524 kts
2026-05-06 07:28 -30.69407 175.76084 40272 ft 524 kts
2026-05-06 07:29 -30.62160 175.77101 40272 ft 524 kts
2026-05-06 07:29 -30.54915 175.78117 40267 ft 524 kts
2026-05-06 07:30 -30.47665 175.79132 40266 ft 524 kts
2026-05-06 07:30 -30.40424 175.80145 40263 ft 524 kts
2026-05-06 07:31 -30.33227 175.81154 40268 ft 523 kts
2026-05-06 07:31 -30.25985 175.82163 40261 ft 524 kts
2026-05-06 07:32 -30.18739 175.83169 40257 ft 524 kts
2026-05-06 07:32 -30.11502 175.84173 40255 ft 524 kts
2026-05-06 07:33 -30.04257 175.85178 40238 ft 524 kts
2026-05-06 07:33 -29.97012 175.86182 40254 ft 525 kts
2026-05-06 07:34 -29.89743 175.87187 40243 ft 526 kts
2026-05-06 07:34 -29.82472 175.88192 40253 ft 526 kts
2026-05-06 07:35 -29.75203 175.89196 40231 ft 526 kts
2026-05-06 07:35 -29.67928 175.90197 40243 ft 527 kts
2026-05-06 07:36 -29.60639 175.91200 40241 ft 527 kts
2026-05-06 07:36 -29.53403 175.92194 40239 ft 527 kts
2026-05-06 07:37 -29.46120 175.93193 40231 ft 527 kts
2026-05-06 07:37 -29.38824 175.94192 40232 ft 527 kts
2026-05-06 07:38 -29.32762 175.95022 40235 ft 527 kts
2026-05-06 07:38 -29.25467 175.96018 40232 ft 527 kts
2026-05-06 07:39 -29.18177 175.97013 40215 ft 527 kts
2026-05-06 07:39 -29.10880 175.98007 40230 ft 528 kts
2026-05-06 07:40 -29.03630 175.98993 40227 ft 528 kts
2026-05-06 07:40 -28.96332 175.99984 40228 ft 528 kts
2026-05-06 07:41 -28.89022 176.00975 40213 ft 528 kts
2026-05-06 07:41 -28.81727 176.01963 40222 ft 528 kts
2026-05-06 07:42 -28.74421 176.02951 40221 ft 528 kts
2026-05-06 07:42 -28.67127 176.03936 40220 ft 528 kts
2026-05-06 07:43 -28.59877 176.04914 40198 ft 527 kts
2026-05-06 07:43 -28.52585 176.05897 40214 ft 527 kts
2026-05-06 07:44 -28.45290 176.06878 40211 ft 527 kts
2026-05-06 07:44 -28.38048 176.07850 40211 ft 527 kts
2026-05-06 07:45 -28.30756 176.08828 40184 ft 527 kts
2026-05-06 07:45 -28.23460 176.09806 40204 ft 527 kts
2026-05-06 07:46 -28.16189 176.10778 40203 ft 527 kts
2026-05-06 07:46 -28.08905 176.11751 40201 ft 527 kts
2026-05-06 07:47 -28.01670 176.12716 40197 ft 527 kts
2026-05-06 07:47 -27.94394 176.13685 40194 ft 527 kts
2026-05-06 07:48 -27.87102 176.14656 40196 ft 527 kts
2026-05-06 07:48 -27.79813 176.15624 40195 ft 527 kts
2026-05-06 07:49 -27.72512 176.16600 40194 ft 527 kts
2026-05-06 07:49 -27.65259 176.17557 40188 ft 527 kts
2026-05-06 07:50 -27.57971 176.18518 40189 ft 527 kts
2026-05-06 07:50 -27.50687 176.19480 40190 ft 527 kts
2026-05-06 07:51 -27.43449 176.20435 40186 ft 527 kts
2026-05-06 07:51 -27.36165 176.21396 40180 ft 527 kts
2026-05-06 07:52 -27.28873 176.22355 40182 ft 527 kts
2026-05-06 07:52 -27.21587 176.23313 40181 ft 527 kts
2026-05-06 07:53 -27.14304 176.24269 40176 ft 527 kts
2026-05-06 07:53 -27.07060 176.25219 40180 ft 527 kts
2026-05-06 07:54 -26.99754 176.26175 40173 ft 527 kts
2026-05-06 07:54 -26.92465 176.27128 40171 ft 527 kts
2026-05-06 07:55 -26.85174 176.28080 40169 ft 527 kts
2026-05-06 07:55 -26.77882 176.29032 40168 ft 528 kts
2026-05-06 07:56 -26.70632 176.29976 40168 ft 528 kts
2026-05-06 07:56 -26.63330 176.30926 40164 ft 528 kts
2026-05-06 07:57 -26.56029 176.31874 40162 ft 528 kts
2026-05-06 07:57 -26.48735 176.32821 40159 ft 528 kts
2026-05-06 07:58 -26.41438 176.33766 40156 ft 528 kts
2026-05-06 07:58 -26.34132 176.34712 40157 ft 527 kts
2026-05-06 07:59 -26.26860 176.35652 40154 ft 527 kts
2026-05-06 07:59 -26.19551 176.36596 40133 ft 527 kts
2026-05-06 08:00 -26.12260 176.37536 40151 ft 527 kts
2026-05-06 08:00 -26.05017 176.38468 40146 ft 527 kts
2026-05-06 08:01 -25.97713 176.39408 40144 ft 527 kts
2026-05-06 08:01 -25.90426 176.40344 40119 ft 527 kts
2026-05-06 08:02 -25.83127 176.41280 40138 ft 527 kts
2026-05-06 08:02 -25.75834 176.42215 40138 ft 527 kts
2026-05-06 08:03 -25.68550 176.43147 40129 ft 527 kts
2026-05-06 08:03 -25.61252 176.44080 40130 ft 527 kts
2026-05-06 08:04 -25.53964 176.45010 40126 ft 528 kts
2026-05-06 08:04 -25.46708 176.45935 40122 ft 528 kts
2026-05-06 08:05 -25.39399 176.46866 40122 ft 528 kts
2026-05-06 08:05 -25.32092 176.47795 40119 ft 528 kts
2026-05-06 08:06 -25.24794 176.48723 40113 ft 529 kts
2026-05-06 08:06 -25.17477 176.49651 40111 ft 529 kts
2026-05-06 08:07 -25.10196 176.50574 40115 ft 529 kts
2026-05-06 08:07 -25.02881 176.51500 40108 ft 529 kts
2026-05-06 08:08 -24.95554 176.52434 40088 ft 529 kts
2026-05-06 08:08 -24.88217 176.53359 40105 ft 530 kts
2026-05-06 08:09 -24.80918 176.54277 40109 ft 530 kts
2026-05-06 08:09 -24.73592 176.55199 40107 ft 530 kts
2026-05-06 08:10 -24.66267 176.56122 40101 ft 530 kts
2026-05-06 08:10 -24.58930 176.57045 40100 ft 530 kts
2026-05-06 08:11 -24.51589 176.57967 40097 ft 530 kts
2026-05-06 08:11 -24.44266 176.58886 40094 ft 530 kts
2026-05-06 08:12 -24.36971 176.59801 40094 ft 530 kts
2026-05-06 08:12 -24.29638 176.60719 40091 ft 531 kts
2026-05-06 08:13 -24.22283 176.61638 40092 ft 531 kts
2026-05-06 08:13 -24.14929 176.62557 40089 ft 532 kts
2026-05-06 08:14 -24.07568 176.63476 40083 ft 531 kts
2026-05-06 08:14 -24.00213 176.64393 40074 ft 532 kts
2026-05-06 08:15 -23.92878 176.65306 40078 ft 533 kts
2026-05-06 08:15 -23.85504 176.66223 40076 ft 533 kts
2026-05-06 08:16 -23.78129 176.67139 40074 ft 533 kts
2026-05-06 08:16 -23.70753 176.68055 40050 ft 533 kts
2026-05-06 08:17 -23.63372 176.68969 40070 ft 534 kts
2026-05-06 08:17 -23.56036 176.69877 40068 ft 534 kts
2026-05-06 08:18 -23.48650 176.70791 40067 ft 534 kts
2026-05-06 08:18 -23.41272 176.71702 40067 ft 534 kts
2026-05-06 08:19 -23.33875 176.72614 40067 ft 534 kts
2026-05-06 08:19 -23.26488 176.73525 40058 ft 534 kts
2026-05-06 08:20 -23.19095 176.74435 40048 ft 534 kts
2026-05-06 08:20 -23.11756 176.75337 40047 ft 534 kts
2026-05-06 08:21 -23.04352 176.76247 40042 ft 534 kts
2026-05-06 08:21 -22.96965 176.77153 40049 ft 534 kts
2026-05-06 08:22 -22.89581 176.78058 40050 ft 534 kts
2026-05-06 08:22 -22.82195 176.78962 40050 ft 534 kts
2026-05-06 08:23 -22.74855 176.79860 40019 ft 534 kts
2026-05-06 08:23 -22.67470 176.80762 40039 ft 533 kts
2026-05-06 08:24 -22.60106 176.81661 40036 ft 533 kts
2026-05-06 08:24 -22.52738 176.82559 40031 ft 533 kts
2026-05-06 08:25 -22.45377 176.83455 40030 ft 532 kts
2026-05-06 08:25 -22.38011 176.84350 40030 ft 532 kts
2026-05-06 08:26 -22.31898 176.85094 40031 ft 531 kts
2026-05-06 08:26 -22.24550 176.85986 40026 ft 531 kts
2026-05-06 08:27 -22.16008 176.87021 40033 ft 531 kts
2026-05-06 08:27 -22.09851 176.87767 39994 ft 531 kts
2026-05-06 08:28 -22.02562 176.88649 40023 ft 530 kts
2026-05-06 08:28 -21.95215 176.89537 40023 ft 529 kts
2026-05-06 08:29 -21.87895 176.90421 40023 ft 529 kts
2026-05-06 08:29 -21.80571 176.91305 40023 ft 529 kts
2026-05-06 08:30 -21.73246 176.92187 40011 ft 529 kts
2026-05-06 08:30 -21.65941 176.93067 40018 ft 527 kts
2026-05-06 08:31 -21.59329 176.93863 40018 ft 527 kts
2026-05-06 08:31 -21.52034 176.94739 40025 ft 527 kts
2026-05-06 08:32 -21.44733 176.95615 40015 ft 527 kts
2026-05-06 08:32 -21.37444 176.96489 40009 ft 527 kts
2026-05-06 08:33 -21.30201 176.97356 40010 ft 527 kts
2026-05-06 08:33 -21.22907 176.98229 40007 ft 527 kts
2026-05-06 08:34 -21.11993 176.99534 40007 ft 527 kts
2026-05-06 08:35 -21.04705 177.00404 40008 ft 525 kts
2026-05-06 08:35 -20.97449 177.01270 40001 ft 524 kts
2026-05-06 08:36 -20.90174 177.02136 40001 ft 524 kts
2026-05-06 08:36 -20.82963 177.02994 40001 ft 524 kts
2026-05-06 08:37 -20.75708 177.03857 39989 ft 524 kts
2026-05-06 08:37 -20.68473 177.04717 40000 ft 522 kts
2026-05-06 08:38 -20.61263 177.05573 39999 ft 521 kts
2026-05-06 08:38 -20.57656 177.06000 39857 ft 521 kts
2026-05-06 08:38 -20.54064 177.06426 39326 ft 519 kts
2026-05-06 08:38 -20.50477 177.06851 38747 ft 519 kts
2026-05-06 08:39 -20.46884 177.07277 38040 ft 519 kts
2026-05-06 08:39 -20.43298 177.07702 37361 ft 519 kts
2026-05-06 08:39 -20.39709 177.08127 36729 ft 519 kts
2026-05-06 08:39 -20.36116 177.08553 36076 ft 519 kts
2026-05-06 08:40 -20.32519 177.08978 35394 ft 521 kts
2026-05-06 08:40 -20.28911 177.09404 34771 ft 521 kts 360°
2026-05-06 08:40 -20.25308 177.09831 34273 ft 519 kts 359°
2026-05-06 08:40 -20.21724 177.10257 33582 ft 520 kts 359°
2026-05-06 08:41 -20.18166 177.10673 32915 ft 521 kts 360°
2026-05-06 08:41 -20.14572 177.11092 32361 ft 518 kts
2026-05-06 08:41 -20.10995 177.11509 31825 ft 514 kts
2026-05-06 08:41 -20.07434 177.11925 31319 ft 511 kts
2026-05-06 08:42 -20.03911 177.12337 30822 ft 508 kts
2026-05-06 08:42 -20.00405 177.12747 30314 ft 505 kts
2026-05-06 08:42 -19.96921 177.13154 29773 ft 502 kts
2026-05-06 08:42 -19.93453 177.13559 29240 ft 498 kts
2026-05-06 08:43 -19.90025 177.13960 28740 ft 494 kts
2026-05-06 08:43 -19.86669 177.14353 28243 ft 489 kts
2026-05-06 08:43 -19.83292 177.14747 27743 ft 485 kts
2026-05-06 08:43 -19.79947 177.15137 27254 ft 481 kts
2026-05-06 08:44 -19.76639 177.15523 26740 ft 477 kts
2026-05-06 08:44 -19.73349 177.15906 26267 ft 473 kts
2026-05-06 08:44 -19.70092 177.16285 25779 ft 469 kts
2026-05-06 08:44 -19.66846 177.16662 25288 ft 466 kts
2026-05-06 08:45 -19.63636 177.17035 24793 ft 463 kts
2026-05-06 08:45 -19.60451 177.17405 24302 ft 460 kts
2026-05-06 08:45 -19.57282 177.17773 23809 ft 457 kts
2026-05-06 08:45 -19.54132 177.18139 23274 ft 454 kts
2026-05-06 08:46 -19.51009 177.18502 22743 ft 449 kts
2026-05-06 08:46 -19.47913 177.18863 22265 ft 444 kts
2026-05-06 08:46 -19.44890 177.19214 21781 ft 439 kts
2026-05-06 08:46 -19.41868 177.19566 21294 ft 434 kts
2026-05-06 08:47 -19.38881 177.19913 20831 ft 430 kts
2026-05-06 08:47 -19.35924 177.20256 20350 ft 425 kts
2026-05-06 08:47 -19.32994 177.20596 19879 ft 421 kts
2026-05-06 08:47 -19.30087 177.20927 19385 ft 418 kts
2026-05-06 08:48 -19.27205 177.21176 18900 ft 415 kts
2026-05-06 08:48 -19.24334 177.21398 18419 ft 411 kts
2026-05-06 08:48 -19.21487 177.21623 17912 ft 408 kts
2026-05-06 08:48 -19.18675 177.21850 17428 ft 403 kts
2026-05-06 08:49 -19.15903 177.22078 16980 ft 397 kts
2026-05-06 08:49 -19.13161 177.22305 16539 ft 393 kts
2026-05-06 08:49 -19.10455 177.22530 16092 ft 388 kts
2026-05-06 08:49 -19.07779 177.22753 15642 ft 383 kts
2026-05-06 08:50 -19.05136 177.22974 15220 ft 379 kts
2026-05-06 08:50 -19.02521 177.23192 14790 ft 375 kts
2026-05-06 08:50 -18.99932 177.23408 14366 ft 371 kts
2026-05-06 08:50 -18.97371 177.23622 13942 ft 368 kts
2026-05-06 08:51 -18.94825 177.23835 13487 ft 364 kts
2026-05-06 08:51 -18.92351 177.24042 13056 ft 359 kts
2026-05-06 08:51 -18.89875 177.24249 12643 ft 354 kts
2026-05-06 08:51 -18.87426 177.24453 12267 ft 349 kts
2026-05-06 08:52 -18.85021 177.24654 11878 ft 345 kts
2026-05-06 08:52 -18.82635 177.24854 11494 ft 342 kts
2026-05-06 08:52 -18.80271 177.25051 11096 ft 340 kts
2026-05-06 08:52 -18.77942 177.25246 10911 ft 329 kts
2026-05-06 08:53 -18.75707 177.25432 10800 ft 316 kts
2026-05-06 08:53 -18.73559 177.25612 10654 ft 304 kts
2026-05-06 08:53 -18.71467 177.25787 10348 ft 300 kts
2026-05-06 08:53 -18.69397 177.25960 10028 ft 296 kts
2026-05-06 08:54 -18.67324 177.26133 9772 ft 305 kts
2026-05-06 08:54 -18.65202 177.26310 9664 ft 310 kts
2026-05-06 08:54 -18.63056 177.26489 9200 ft 310 kts
2026-05-06 08:54 -18.60910 177.26667 8788 ft 308 kts
2026-05-06 08:55 -18.58775 177.26845 8457 ft 306 kts
2026-05-06 08:55 -18.56655 177.27021 8138 ft 305 kts
2026-05-06 08:55 -18.54544 177.27197 7829 ft 303 kts
2026-05-06 08:55 -18.52447 177.27371 7516 ft 302 kts
2026-05-06 08:56 -18.50384 177.27544 7229 ft 298 kts
2026-05-06 08:56 -18.48313 177.27716 6915 ft 298 kts
2026-05-06 08:56 -18.46252 177.27888 6612 ft 295 kts
2026-05-06 08:56 -18.44202 177.28058 6294 ft 296 kts
2026-05-06 08:57 -18.42165 177.28228 5988 ft 292 kts
2026-05-06 08:57 -18.40148 177.28396 5684 ft 290 kts
2026-05-06 08:57 -18.38146 177.28562 5378 ft 287 kts
2026-05-06 08:57 -18.36154 177.28726 5087 ft 286 kts
2026-05-06 08:58 -18.34176 177.28890 4787 ft 284 kts
2026-05-06 08:58 -18.32232 177.29052 4396 ft 284 kts
2026-05-06 08:58 -18.30252 177.29216 3895 ft 285 kts
2026-05-06 08:58 -18.28278 177.29381 3566 ft 282 kts
2026-05-06 08:59 -18.26315 177.29543 3527 ft 282 kts
2026-05-06 08:59 -18.24364 177.29705 3491 ft 281 kts
2026-05-06 08:59 -18.22410 177.29868 3466 ft 282 kts
2026-05-06 08:59 -18.20454 177.30030 3422 ft 282 kts
2026-05-06 09:00 -18.18498 177.30192 3361 ft 281 kts
2026-05-06 09:00 -18.16543 177.30354 3309 ft 282 kts
2026-05-06 09:00 -18.14596 177.30515 3242 ft 279 kts
2026-05-06 09:00 -18.12653 177.30676 3179 ft 280 kts
2026-05-06 09:01 -18.10746 177.30834 3121 ft 277 kts
2026-05-06 09:01 -18.08811 177.30995 3057 ft 279 kts
2026-05-06 09:01 -18.06883 177.31154 3014 ft 277 kts
2026-05-06 09:01 -18.04958 177.31315 3004 ft 278 kts
2026-05-06 09:02 -18.03075 177.31468 2989 ft 263 kts
2026-05-06 09:02 -18.01312 177.31610 2989 ft 245 kts
2026-05-06 09:02 -17.99665 177.31744 2981 ft 229 kts
2026-05-06 09:02 -17.98129 177.31868 2998 ft 212 kts
2026-05-06 09:03 -17.96717 177.31984 3003 ft 196 kts 11°
2026-05-06 09:03 -17.95383 177.32138 2998 ft 192 kts 14°
2026-05-06 09:03 -17.94067 177.32371 2999 ft 191 kts 18°
2026-05-06 09:03 -17.92778 177.32683 2996 ft 189 kts 21°
2026-05-06 09:04 -17.91524 177.33070 2978 ft 190 kts 25°
2026-05-06 09:04 -17.90274 177.33542 3006 ft 189 kts 28°
2026-05-06 09:04 -17.89081 177.34076 3015 ft 184 kts 32°
2026-05-06 09:04 -17.87939 177.34672 2776 ft 180 kts 36°
2026-05-06 09:05 -17.86861 177.35274 2630 ft 169 kts 38°
2026-05-06 09:05 -17.85923 177.35955 2349 ft 160 kts 46°
2026-05-06 09:05 -17.85055 177.36647 2029 ft 156 kts 44°
2026-05-06 09:05 -17.84206 177.37306 1769 ft 149 kts 45°
2026-05-06 09:06 -17.83404 177.37958 1565 ft 144 kts 45°
2026-05-06 09:06 -17.82614 177.38595 1374 ft 144 kts 45°
2026-05-06 09:06 -17.81808 177.39246 1181 ft 147 kts 44°
2026-05-06 09:06 -17.81002 177.39897 986 ft 146 kts 42°
2026-05-06 09:07 -17.80196 177.40553 796 ft 146 kts 43°
2026-05-06 09:07 -17.79396 177.41195 628 ft 145 kts 40°
2026-05-06 09:07 -17.78578 177.41847 406 ft 150 kts 41°
2026-05-06 09:07 -17.77761 177.42521 188 ft 147 kts 39°
2026-05-06 09:08 -17.76949 177.43174 46 ft 144 kts 38°
2026-05-06 09:08 -17.76254 177.43735 46 ft 109 kts 38°
2026-05-06 09:08 -17.75737 177.44150 53 ft 82 kts 37°
2026-05-06 09:08 -17.75362 177.44453 51 ft 55 kts 37°
2026-05-06 09:09 -17.75136 177.44635 49 ft 27 kts 37°
2026-05-06 09:09 -17.75045 177.44708 51 ft 10 kts 38°
2026-05-06 09:09 -17.75013 177.44751 52 ft 8 kts 68°
2026-05-06 09:09 -17.75011 177.44811 57 ft 9 kts 101°
2026-05-06 09:10 -17.75030 177.44880 52 ft 10 kts 106°
2026-05-06 09:10 -17.75048 177.44933 52 ft 7 kts 117°
2026-05-06 09:10 -17.75089 177.44974 53 ft 9 kts 150°
2026-05-06 09:10 -17.75147 177.44981 55 ft 9 kts 191°
2026-05-06 09:11 -17.75211 177.44948 56 ft 12 kts 208°
2026-05-06 09:11 -17.75282 177.44930 55 ft 2 kts 169°
2026-05-06 09:11 -17.75288 177.44937 55 ft 1 kts 136°
2026-05-06 09:11 -17.75293 177.44946 51 ft 2 kts 115°
2026-05-06 09:12 -17.75302 177.44967 52 ft 5 kts 114°
2026-05-06 09:12 -17.75306 177.44978 53 ft 0 kts 111°